Regional Weather Roundup
Issued by NWS Northern Indiana

Home | Current Version | Previous Version | Text Only | Print | Product List | Glossary Off
Versions: 1 2 3 4 5 6 7 8 9 10 11 12 13 14 15 16 17 18 19 20 21 22 23 24 25 26 27 28 29 30 31 32 33 34 35 36 37 38 39 40 41 42 43 44 45 46 47 48 49 50

000
ASUS43 KIWX 010800
RWRIWX

KIWX WEATHER ROUNDUP
NATIONAL WEATHER SERVICE NORTHERN INDIANA
400 AM EDT WED JUL 01 2015

NOTE: "FAIR" INDICATES FEW OR NO CLOUDS BELOW 12,000 FEET WITH NO
SIGNIFICANT WEATHER AND/OR OBSTRUCTIONS TO VISIBILITY.

* THESE STATIONS ARE NOT UNDER NWS QUALITY CONTROL. THEY ALSO MAY NOT
  REPORT WEATHER SUCH AS PRECIPITATION OR FOG.

INZ001>027-010900-
NORTHERN INDIANA

CITY           SKY/WX    TMP DP  RH WIND       PRES   REMARKS
SOUTH BEND     CLEAR     57  54  89 W9        29.91R
GOSHEN         CLEAR     56  54  93 W8        29.89R
ANGOLA*        CLEAR     57  55  94 NW3       29.86S
FORT WAYNE     PTCLDY    59  56  89 W7        29.88R
PERU/GRISSOM   CLEAR     60  57  91 NW5       29.89S

$$
INZ028>050-010900-
CENTRAL INDIANA

CITY           SKY/WX    TMP DP  RH WIND       PRES   REMARKS
LAFAYETTE      CLEAR     60  57  89 N5        29.91R
KOKOMO*        CLEAR     61  55  82 NW5       29.90S
MUNCIE*        CLEAR     62  58  86 W6        29.90R
INDIANAPOLIS   PTCLDY    64  61  90 CALM      29.89R

$$
MIZ043>046-050>051-056>058-064>065-071>073-077>080-010900-
SOUTHWEST LOWER MICHIGAN

CITY           SKY/WX    TMP DP  RH WIND       PRES   REMARKS
BATTLE CREEK   CLOUDY    60  57  89 NW5       29.86S
BENTON HARBOR  PTCLDY    58  55  90 NW5       29.89S
COLDWATER*     CLOUDY    58  57  97 NW5       29.86S FOG
HILLSDALE*     CLOUDY    60  60 100 W6        29.85S FOG
HOLLAND        CLOUDY    56  53  90 NW3       29.89R
GRAND RAPIDS   CLOUDY    58  55  90 N8        29.86S
KALAMAZOO      CLOUDY    57  54  89 NW9       29.87S
STURGIS*       CLEAR     55  54  94 W3        29.87R
THREE RIVERS*  FAIR      56  54  92 NW7       29.87S

$$
OHZ001>008-015>018-024>025-010900-
NORTHWEST OHIO

CITY           SKY/WX    TMP DP  RH WIND       PRES   REMARKS
DEFIANCE       CLOUDY    61  58  90 W6        29.86R
FINDLAY        MOCLDY    61  59  93 W9        29.84R
TOLEDO EXPRESS CLEAR     60  58  92 W8        29.82S
TOLEDO METCALF PTCLDY    61  58  90 W7        29.83R
LIMA           CLEAR     60  57  89 W8        29.86S

$$
AND FOR LAKE MICHIGAN COASTAL AND OPEN LAKE BUOY OBSERVATIONS

STATION/POSITION TEMP    WIND        PRES    VSBY  WAVE
                 AIR SEA DIR/SP/G                  HT/PER
                 (F)     (DEG/KT/KT) (MB)    (MI)  (FT/S)
CALUMET HARBOR    59     360/  5/  9   N/A
MICHIGAN CITY     58     310/  8/  9   N/A
BURNS HARBOR      60     330/  6/  8 1013.9R
SAINT JOSEPH      61     350/  9/ 13   N/A
4 MI NW BRIDGMAN  62 64                N/A           4/ 5
MICHIGAN CITY     59 65  340/  6/ 10   N/A           3/ 6

$$
&&



USA.gov is the U.S. government's official web portal to all federal, state and local government web resources and services.